owner,sensor,date,latitude,longitude,vertical_datum,wind_speed,wind_to_direction,wind_speed_of_gust,qcFlag 
ADCP,ioos:station:wmo:42887:1,2012-08-01T00:00:00Z,28.1910,-88.4960,48.2,6.0,115.0,99.0,'11111222,11111222,11144222' 
ADCP,ioos:station:wmo:42887:1,2012-08-01T00:20:00Z,28.1910,-88.4960,48.2,5.0,139.0,99.0,'11111222,11111222,11144222' 
ADCP,ioos:station:wmo:42887:1,2012-08-01T00:40:00Z,28.1910,-88.4960,48.2,5.1,161.0,99.0,'11111222,11111222,11144222' 
ADCP,ioos:station:wmo:42887:1,2012-08-01T01:00:00Z,28.1910,-88.4960,48.2,6.0,164.0,99.0,'11111222,11111222,11144222' 
ADCP,ioos:station:wmo:42887:1,2012-08-01T01:20:00Z,28.1910,-88.4960,48.2,5.4,183.0,99.0,'11111222,11111222,11144222' 
ADCP,ioos:station:wmo:42887:1,2012-08-01T01:40:00Z,28.1910,-88.4960,48.2,5.5,180.0,99.0,'11111222,11111222,11144222' 
ADCP,ioos:station:wmo:42887:1,2012-08-01T02:00:00Z,28.1910,-88.4960,48.2,6.2,190.0,99.0,'11111222,11111222,11144222' 
ADCP,ioos:station:wmo:42887:1,2012-08-01T02:20:00Z,28.1910,-88.4960,48.2,5.6,197.0,99.0,'11111222,11111222,11144222' 
ADCP,ioos:station:wmo:42887:1,2012-08-01T02:40:00Z,28.1910,-88.4960,48.2,6.5,200.0,99.0,'11111222,11111222,11144222' 
ADCP,ioos:station:wmo:42887:1,2012-08-01T03:00:00Z,28.1910,-88.4960,48.2,6.4,204.0,99.0,'11111222,11111222,11144222' 
ADCP,ioos:station:wmo:42887:1,2012-08-01T03:20:00Z,28.1910,-88.4960,48.2,7.2,204.0,99.0,'11111222,11111222,11144222' 
ADCP,ioos:station:wmo:42887:1,2012-08-01T03:40:00Z,28.1910,-88.4960,48.2,6.0,211.0,99.0,'11111222,11111222,11144222' 
ADCP,ioos:station:wmo:42887:1,2012-08-01T04:00:00Z,28.1910,-88.4960,48.2,7.3,209.0,99.0,'11111222,11111222,11144222' 
ADCP,ioos:station:wmo:42887:1,2012-08-01T04:20:00Z,28.1910,-88.4960,48.2,7.1,210.0,99.0,'11111222,11111222,11144222' 
ADCP,ioos:station:wmo:42887:1,2012-08-01T04:40:00Z,28.1910,-88.4960,48.2,6.4,218.0,99.0,'11111222,11111222,11144222' 
ADCP,ioos:station:wmo:42887:1,2012-08-01T05:00:00Z,28.1910,-88.4960,48.2,6.9,222.0,99.0,'11111222,11111222,11144222' 
ADCP,ioos:station:wmo:42887:1,2012-08-01T05:20:00Z,28.1910,-88.4960,48.2,6.9,226.0,99.0,'11111222,11111222,11144222' 
ADCP,ioos:station:wmo:42887:1,2012-08-01T05:40:00Z,28.1910,-88.4960,48.2,7.0,225.0,99.0,'11111222,11111222,11144222' 
ADCP,ioos:station:wmo:42887:1,2012-08-01T06:00:00Z,28.1910,-88.4960,48.2,7.2,239.0,99.0,'11111222,11111222,11144222' 
ADCP,ioos:station:wmo:42887:1,2012-08-01T06:20:00Z,28.1910,-88.4960,48.2,4.1,246.0,99.0,'11111222,11111222,11144222' 
ADCP,ioos:station:wmo:42887:1,2012-08-01T06:40:00Z,28.1910,-88.4960,48.2,4.0,250.0,99.0,'11111222,11111222,11144222' 
ADCP,ioos:station:wmo:42887:1,2012-08-01T07:00:00Z,28.1910,-88.4960,48.2,3.6,240.0,99.0,'11111222,11111222,11144222' 
ADCP,ioos:station:wmo:42887:1,2012-08-01T07:20:00Z,28.1910,-88.4960,48.2,4.7,220.0,99.0,'11111222,11111222,11144222' 
ADCP,ioos:station:wmo:42887:1,2012-08-01T07:40:00Z,28.1910,-88.4960,48.2,2.0,276.0,99.0,'11111222,11111222,11144222' 
ADCP,ioos:station:wmo:42887:1,2012-08-01T08:00:00Z,28.1910,-88.4960,48.2,4.4,285.0,99.0,'11111222,11111222,11144222' 
ADCP,ioos:station:wmo:42887:1,2012-08-01T08:20:00Z,28.1910,-88.4960,48.2,1.8,289.0,99.0,'11111222,11111222,11144222' 
ADCP,ioos:station:wmo:42887:1,2012-08-01T08:40:00Z,28.1910,-88.4960,48.2,3.9,275.0,99.0,'11111222,11111222,11144222' 
ADCP,ioos:station:wmo:42887:1,2012-08-01T09:00:00Z,28.1910,-88.4960,48.2,3.5,277.0,99.0,'11111222,11111222,11144222' 
ADCP,ioos:station:wmo:42887:1,2012-08-01T09:20:00Z,28.1910,-88.4960,48.2,3.7,279.0,99.0,'11111222,11111222,11144222' 
ADCP,ioos:station:wmo:42887:1,2012-08-01T09:40:00Z,28.1910,-88.4960,48.2,3.5,281.0,99.0,'11111222,11111222,11144222' 
ADCP,ioos:station:wmo:42887:1,2012-08-01T10:00:00Z,28.1910,-88.4960,48.2,4.7,283.0,99.0,'11111222,11111222,11144222' 
ADCP,ioos:station:wmo:42887:1,2012-08-01T10:20:00Z,28.1910,-88.4960,48.2,2.9,280.0,99.0,'11111222,11111222,11144222' 
ADCP,ioos:station:wmo:42887:1,2012-08-01T10:40:00Z,28.1910,-88.4960,48.2,2.5,273.0,99.0,'11111222,11111222,11144222' 
ADCP,ioos:station:wmo:42887:1,2012-08-01T11:00:00Z,28.1910,-88.4960,48.2,1.7,273.0,99.0,'11111222,11111222,11144222' 
ADCP,ioos:station:wmo:42887:1,2012-08-01T11:20:00Z,28.1910,-88.4960,48.2,8.7,298.0,99.0,'11111222,11111222,11144222' 
ADCP,ioos:station:wmo:42887:1,2012-08-01T11:40:00Z,28.1910,-88.4960,48.2,3.8,289.0,99.0,'11111222,11111222,11144222' 
ADCP,ioos:station:wmo:42887:1,2012-08-01T12:00:00Z,28.1910,-88.4960,48.2,5.6,336.0,99.0,'11111222,11111222,11144222' 
ADCP,ioos:station:wmo:42887:1,2012-08-01T12:20:00Z,28.1910,-88.4960,48.2,1.4,281.0,99.0,'11111222,11111222,11144222' 
ADCP,ioos:station:wmo:42887:1,2012-08-01T12:40:00Z,28.1910,-88.4960,48.2,0.3,344.0,99.0,'11111222,11111222,11144222' 
ADCP,ioos:station:wmo:42887:1,2012-08-01T13:00:00Z,28.1910,-88.4960,48.2,5.0,308.0,99.0,'11111222,11111222,11144222' 
ADCP,ioos:station:wmo:42887:1,2012-08-01T13:20:00Z,28.1910,-88.4960,48.2,5.8,312.0,99.0,'11111222,11111222,11144222' 
ADCP,ioos:station:wmo:42887:1,2012-08-01T13:40:00Z,28.1910,-88.4960,48.2,6.1,307.0,99.0,'11111222,11111222,11144222' 
ADCP,ioos:station:wmo:42887:1,2012-08-01T14:00:00Z,28.1910,-88.4960,48.2,6.7,325.0,99.0,'11111222,11111222,11144222' 
ADCP,ioos:station:wmo:42887:1,2012-08-01T14:20:00Z,28.1910,-88.4960,48.2,12.2,355.0,99.0,'11111222,11111222,11144222' 
ADCP,ioos:station:wmo:42887:1,2012-08-01T14:40:00Z,28.1910,-88.4960,48.2,13.7,356.0,99.0,'11111222,11111222,11144222' 
ADCP,ioos:station:wmo:42887:1,2012-08-01T15:00:00Z,28.1910,-88.4960,48.2,13.1,360.0,99.0,'11111222,11144222,11144222' 
ADCP,ioos:station:wmo:42887:1,2012-08-01T15:20:00Z,28.1910,-88.4960,48.2,9.3,0.0,99.0,'11111222,11111222,11144222' 
ADCP,ioos:station:wmo:42887:1,2012-08-01T15:40:00Z,28.1910,-88.4960,48.2,10.0,349.0,99.0,'11111222,11111222,11144222' 
ADCP,ioos:station:wmo:42887:1,2012-08-01T16:00:00Z,28.1910,-88.4960,48.2,11.1,331.0,99.0,'11111222,11111222,11144222' 
ADCP,ioos:station:wmo:42887:1,2012-08-01T16:20:00Z,28.1910,-88.4960,48.2,7.3,333.0,99.0,'11111222,11111222,11144222' 
ADCP,ioos:station:wmo:42887:1,2012-08-01T16:40:00Z,28.1910,-88.4960,48.2,7.9,313.0,99.0,'11111222,11111222,11144222' 
ADCP,ioos:station:wmo:42887:1,2012-08-01T17:00:00Z,28.1910,-88.4960,48.2,6.9,324.0,99.0,'11111222,11111222,11144222' 
ADCP,ioos:station:wmo:42887:1,2012-08-01T17:20:00Z,28.1910,-88.4960,48.2,8.8,323.0,99.0,'11111222,11111222,11144222' 
ADCP,ioos:station:wmo:42887:1,2012-08-01T17:40:00Z,28.1910,-88.4960,48.2,8.0,305.0,99.0,'11111222,11111222,11144222' 
ADCP,ioos:station:wmo:42887:1,2012-08-01T18:00:00Z,28.1910,-88.4960,48.2,7.8,301.0,99.0,'11111222,11111222,11144222' 
ADCP,ioos:station:wmo:42887:1,2012-08-01T18:20:00Z,28.1910,-88.4960,48.2,7.2,302.0,99.0,'11111222,11111222,11144222' 
ADCP,ioos:station:wmo:42887:1,2012-08-01T18:40:00Z,28.1910,-88.4960,48.2,6.4,294.0,99.0,'11111222,11111222,11144222' 
ADCP,ioos:station:wmo:42887:1,2012-08-01T19:00:00Z,28.1910,-88.4960,48.2,6.0,284.0,99.0,'11111222,11111222,11144222' 
ADCP,ioos:station:wmo:42887:1,2012-08-01T19:20:00Z,28.1910,-88.4960,48.2,5.2,295.0,99.0,'11111222,11111222,11144222' 
ADCP,ioos:station:wmo:42887:1,2012-08-01T19:40:00Z,28.1910,-88.4960,48.2,2.7,288.0,99.0,'11111222,11111222,11144222' 
ADCP,ioos:station:wmo:42887:1,2012-08-01T20:00:00Z,28.1910,-88.4960,48.2,5.1,281.0,99.0,'11111222,11111222,11144222' 
ADCP,ioos:station:wmo:42887:1,2012-08-01T20:20:00Z,28.1910,-88.4960,48.2,4.1,281.0,99.0,'11111222,11111222,11144222' 
ADCP,ioos:station:wmo:42887:1,2012-08-01T20:40:00Z,28.1910,-88.4960,48.2,4.1,300.0,99.0,'11111222,11111222,11144222' 
ADCP,ioos:station:wmo:42887:1,2012-08-01T21:00:00Z,28.1910,-88.4960,48.2,3.3,278.0,99.0,'11111222,11111222,11144222' 
ADCP,ioos:station:wmo:42887:1,2012-08-01T21:20:00Z,28.1910,-88.4960,48.2,2.6,287.0,99.0,'11111222,11111222,11144222' 
ADCP,ioos:station:wmo:42887:1,2012-08-01T21:40:00Z,28.1910,-88.4960,48.2,2.0,285.0,99.0,'11111222,11111222,11144222' 
ADCP,ioos:station:wmo:42887:1,2012-08-01T22:00:00Z,28.1910,-88.4960,48.2,2.5,294.0,99.0,'11111222,11111222,11144222' 
ADCP,ioos:station:wmo:42887:1,2012-08-01T22:20:00Z,28.1910,-88.4960,48.2,2.8,303.0,99.0,'11111222,11111222,11144222' 
ADCP,ioos:station:wmo:42887:1,2012-08-01T22:40:00Z,28.1910,-88.4960,48.2,2.0,284.0,99.0,'11111222,11111222,11144222' 
ADCP,ioos:station:wmo:42887:1,2012-08-01T23:00:00Z,28.1910,-88.4960,48.2,1.1,252.0,99.0,'11111222,11111222,11144222' 
ADCP,ioos:station:wmo:42887:1,2012-08-01T23:20:00Z,28.1910,-88.4960,48.2,0.9,263.0,99.0,'11111222,11111222,11144222' 
ADCP,ioos:station:wmo:42887:1,2012-08-01T23:40:00Z,28.1910,-88.4960,48.2,1.3,274.0,99.0,'11111222,11111222,11144222' 
ADCP,ioos:station:wmo:42887:1,2012-08-02T00:00:00Z,28.1910,-88.4960,48.2,2.2,250.0,99.0,'11111222,11111222,11144222' 
ADCP,ioos:station:wmo:42887:1,2012-08-02T00:20:00Z,28.1910,-88.4960,48.2,1.7,254.0,99.0,'11111222,11111222,11144222' 
ADCP,ioos:station:wmo:42887:1,2012-08-02T00:40:00Z,28.1910,-88.4960,48.2,2.2,249.0,99.0,'11111222,11111222,11144222' 
ADCP,ioos:station:wmo:42887:1,2012-08-02T01:00:00Z,28.1910,-88.4960,48.2,1.3,241.0,99.0,'11111222,11111222,11144222' 
ADCP,ioos:station:wmo:42887:1,2012-08-02T01:20:00Z,28.1910,-88.4960,48.2,1.7,251.0,99.0,'11111222,11111222,11144222' 
ADCP,ioos:station:wmo:42887:1,2012-08-02T01:40:00Z,28.1910,-88.4960,48.2,1.6,250.0,99.0,'11111222,11111222,11144222' 
ADCP,ioos:station:wmo:42887:1,2012-08-02T02:00:00Z,28.1910,-88.4960,48.2,2.7,233.0,99.0,'11111222,11111222,11144222' 
ADCP,ioos:station:wmo:42887:1,2012-08-02T02:20:00Z,28.1910,-88.4960,48.2,0.9,249.0,99.0,'11111222,11111222,11144222' 
ADCP,ioos:station:wmo:42887:1,2012-08-02T02:40:00Z,28.1910,-88.4960,48.2,2.1,238.0,99.0,'11111222,11111222,11144222' 
ADCP,ioos:station:wmo:42887:1,2012-08-02T03:00:00Z,28.1910,-88.4960,48.2,1.4,291.0,99.0,'11111222,11111222,11144222' 
ADCP,ioos:station:wmo:42887:1,2012-08-02T03:20:00Z,28.1910,-88.4960,48.2,0.7,263.0,99.0,'11111222,11111222,11144222' 
ADCP,ioos:station:wmo:42887:1,2012-08-02T03:40:00Z,28.1910,-88.4960,48.2,3.0,249.0,99.0,'11111222,11111222,11144222' 
ADCP,ioos:station:wmo:42887:1,2012-08-02T04:00:00Z,28.1910,-88.4960,48.2,4.1,231.0,99.0,'11111222,11111222,11144222' 
ADCP,ioos:station:wmo:42887:1,2012-08-02T04:20:00Z,28.1910,-88.4960,48.2,3.5,233.0,99.0,'11111222,11111222,11144222' 
ADCP,ioos:station:wmo:42887:1,2012-08-02T04:40:00Z,28.1910,-88.4960,48.2,2.8,258.0,99.0,'11111222,11111222,11144222' 
ADCP,ioos:station:wmo:42887:1,2012-08-02T05:00:00Z,28.1910,-88.4960,48.2,1.2,229.0,99.0,'11111222,11111222,11144222' 
ADCP,ioos:station:wmo:42887:1,2012-08-02T05:20:00Z,28.1910,-88.4960,48.2,2.2,262.0,99.0,'11111222,11111222,11144222' 
ADCP,ioos:station:wmo:42887:1,2012-08-02T05:40:00Z,28.1910,-88.4960,48.2,1.8,253.0,99.0,'11111222,11111222,11144222' 
ADCP,ioos:station:wmo:42887:1,2012-08-02T06:00:00Z,28.1910,-88.4960,48.2,2.1,260.0,99.0,'11111222,11111222,11144222' 
ADCP,ioos:station:wmo:42887:1,2012-08-02T06:20:00Z,28.1910,-88.4960,48.2,2.1,268.0,99.0,'11111222,11111222,11144222' 
ADCP,ioos:station:wmo:42887:1,2012-08-02T06:40:00Z,28.1910,-88.4960,48.2,3.5,247.0,99.0,'11111222,11111222,11144222' 
ADCP,ioos:station:wmo:42887:1,2012-08-02T07:00:00Z,28.1910,-88.4960,48.2,1.9,243.0,99.0,'11111222,11111222,11144222' 
ADCP,ioos:station:wmo:42887:1,2012-08-02T07:20:00Z,28.1910,-88.4960,48.2,1.8,260.0,99.0,'11111222,11111222,11144222' 
ADCP,ioos:station:wmo:42887:1,2012-08-02T07:40:00Z,28.1910,-88.4960,48.2,1.9,257.0,99.0,'11111222,11111222,11144222' 
ADCP,ioos:station:wmo:42887:1,2012-08-02T08:00:00Z,28.1910,-88.4960,48.2,2.1,235.0,99.0,'11111222,11111222,11144222' 
ADCP,ioos:station:wmo:42887:1,2012-08-02T08:20:00Z,28.1910,-88.4960,48.2,2.4,262.0,99.0,'11111222,11111222,11144222' 
ADCP,ioos:station:wmo:42887:1,2012-08-02T08:40:00Z,28.1910,-88.4960,48.2,2.2,223.0,99.0,'11111222,11111222,11144222' 
ADCP,ioos:station:wmo:42887:1,2012-08-02T09:00:00Z,28.1910,-88.4960,48.2,2.1,262.0,99.0,'11111222,11111222,11144222' 
ADCP,ioos:station:wmo:42887:1,2012-08-02T09:20:00Z,28.1910,-88.4960,48.2,3.3,303.0,99.0,'11111222,11111222,11144222' 
ADCP,ioos:station:wmo:42887:1,2012-08-02T09:40:00Z,28.1910,-88.4960,48.2,3.7,288.0,99.0,'11111222,11111222,11144222' 
ADCP,ioos:station:wmo:42887:1,2012-08-02T10:00:00Z,28.1910,-88.4960,48.2,3.8,286.0,99.0,'11111222,11111222,11144222' 
ADCP,ioos:station:wmo:42887:1,2012-08-02T10:20:00Z,28.1910,-88.4960,48.2,4.2,280.0,99.0,'11111222,11111222,11144222' 
ADCP,ioos:station:wmo:42887:1,2012-08-02T10:40:00Z,28.1910,-88.4960,48.2,3.5,285.0,99.0,'11111222,11111222,11144222' 
ADCP,ioos:station:wmo:42887:1,2012-08-02T11:00:00Z,28.1910,-88.4960,48.2,1.6,257.0,99.0,'11111222,11111222,11144222' 
ADCP,ioos:station:wmo:42887:1,2012-08-02T11:20:00Z,28.1910,-88.4960,48.2,4.1,297.0,99.0,'11111222,11111222,11144222' 
ADCP,ioos:station:wmo:42887:1,2012-08-02T11:40:00Z,28.1910,-88.4960,48.2,3.7,296.0,99.0,'11111222,11111222,11144222' 
ADCP,ioos:station:wmo:42887:1,2012-08-02T12:00:00Z,28.1910,-88.4960,48.2,4.3,288.0,99.0,'11111222,11111222,11144222' 
ADCP,ioos:station:wmo:42887:1,2012-08-02T12:20:00Z,28.1910,-88.4960,48.2,3.9,296.0,99.0,'11111222,11111222,11144222' 
ADCP,ioos:station:wmo:42887:1,2012-08-02T12:40:00Z,28.1910,-88.4960,48.2,4.1,299.0,99.0,'11111222,11111222,11144222' 
ADCP,ioos:station:wmo:42887:1,2012-08-02T13:00:00Z,28.1910,-88.4960,48.2,4.4,302.0,99.0,'11111222,11111222,11144222' 
ADCP,ioos:station:wmo:42887:1,2012-08-02T13:20:00Z,28.1910,-88.4960,48.2,4.3,324.0,99.0,'11111222,11111222,11144222' 
ADCP,ioos:station:wmo:42887:1,2012-08-02T13:40:00Z,28.1910,-88.4960,48.2,3.9,316.0,99.0,'11111222,11111222,11144222' 
ADCP,ioos:station:wmo:42887:1,2012-08-02T14:00:00Z,28.1910,-88.4960,48.2,4.0,339.0,99.0,'11111222,11111222,11144222' 
ADCP,ioos:station:wmo:42887:1,2012-08-02T14:20:00Z,28.1910,-88.4960,48.2,4.4,313.0,99.0,'11111222,11111222,11144222' 
ADCP,ioos:station:wmo:42887:1,2012-08-02T14:40:00Z,28.1910,-88.4960,48.2,2.2,332.0,99.0,'11111222,11111222,11144222' 
ADCP,ioos:station:wmo:42887:1,2012-08-02T15:00:00Z,28.1910,-88.4960,48.2,4.0,315.0,99.0,'11111222,11111222,11144222' 
ADCP,ioos:station:wmo:42887:1,2012-08-02T15:20:00Z,28.1910,-88.4960,48.2,4.0,311.0,99.0,'11111222,11111222,11144222' 
ADCP,ioos:station:wmo:42887:1,2012-08-02T15:40:00Z,28.1910,-88.4960,48.2,4.2,313.0,99.0,'11111222,11111222,11144222' 
ADCP,ioos:station:wmo:42887:1,2012-08-02T16:00:00Z,28.1910,-88.4960,48.2,2.5,345.0,99.0,'11111222,11111222,11144222' 
ADCP,ioos:station:wmo:42887:1,2012-08-02T16:20:00Z,28.1910,-88.4960,48.2,4.4,326.0,99.0,'11111222,11111222,11144222' 
ADCP,ioos:station:wmo:42887:1,2012-08-02T16:40:00Z,28.1910,-88.4960,48.2,4.8,338.0,99.0,'11111222,11111222,11144222' 
ADCP,ioos:station:wmo:42887:1,2012-08-02T17:00:00Z,28.1910,-88.4960,48.2,0.9,338.0,99.0,'11111222,11111222,11144222' 
ADCP,ioos:station:wmo:42887:1,2012-08-02T17:20:00Z,28.1910,-88.4960,48.2,2.3,23.0,99.0,'11111222,11111222,11144222' 
ADCP,ioos:station:wmo:42887:1,2012-08-02T17:40:00Z,28.1910,-88.4960,48.2,3.8,344.0,99.0,'11111222,11111222,11144222' 
ADCP,ioos:station:wmo:42887:1,2012-08-02T18:00:00Z,28.1910,-88.4960,48.2,3.8,315.0,99.0,'11111222,11111222,11144222' 
ADCP,ioos:station:wmo:42887:1,2012-08-02T18:20:00Z,28.1910,-88.4960,48.2,2.0,18.0,99.0,'11111222,11111222,11144222' 
ADCP,ioos:station:wmo:42887:1,2012-08-02T18:40:00Z,28.1910,-88.4960,48.2,2.5,359.0,99.0,'11111222,11111222,11144222' 
ADCP,ioos:station:wmo:42887:1,2012-08-02T19:00:00Z,28.1910,-88.4960,48.2,1.4,350.0,99.0,'11111222,11111222,11144222' 
ADCP,ioos:station:wmo:42887:1,2012-08-02T19:20:00Z,28.1910,-88.4960,48.2,3.8,350.0,99.0,'11111222,11111222,11144222' 
ADCP,ioos:station:wmo:42887:1,2012-08-02T19:40:00Z,28.1910,-88.4960,48.2,3.5,338.0,99.0,'11111222,11111222,11144222' 
ADCP,ioos:station:wmo:42887:1,2012-08-02T20:00:00Z,28.1910,-88.4960,48.2,4.0,309.0,99.0,'11111222,11111222,11144222' 
ADCP,ioos:station:wmo:42887:1,2012-08-02T20:20:00Z,28.1910,-88.4960,48.2,3.1,353.0,99.0,'11111222,11111222,11144222' 
ADCP,ioos:station:wmo:42887:1,2012-08-02T20:40:00Z,28.1910,-88.4960,48.2,0.6,289.0,99.0,'11111222,11111222,11144222' 
ADCP,ioos:station:wmo:42887:1,2012-08-02T21:00:00Z,28.1910,-88.4960,48.2,1.0,290.0,99.0,'11111222,11111222,11144222' 
ADCP,ioos:station:wmo:42887:1,2012-08-02T21:20:00Z,28.1910,-88.4960,48.2,1.0,18.0,99.0,'11111222,11111222,11144222' 
ADCP,ioos:station:wmo:42887:1,2012-08-02T21:40:00Z,28.1910,-88.4960,48.2,0.3,348.0,99.0,'11111222,11111222,11144222' 
ADCP,ioos:station:wmo:42887:1,2012-08-02T22:00:00Z,28.1910,-88.4960,48.2,3.4,308.0,99.0,'11111222,11111222,11144222' 
ADCP,ioos:station:wmo:42887:1,2012-08-02T22:20:00Z,28.1910,-88.4960,48.2,2.4,288.0,99.0,'11111222,11111222,11144222' 
ADCP,ioos:station:wmo:42887:1,2012-08-02T22:40:00Z,28.1910,-88.4960,48.2,2.3,299.0,99.0,'11111222,11111222,11144222' 
ADCP,ioos:station:wmo:42887:1,2012-08-02T23:00:00Z,28.1910,-88.4960,48.2,0.8,256.0,99.0,'11111222,11111222,11144222' 
ADCP,ioos:station:wmo:42887:1,2012-08-02T23:20:00Z,28.1910,-88.4960,48.2,2.1,241.0,99.0,'11111222,11111222,11144222' 
ADCP,ioos:station:wmo:42887:1,2012-08-02T23:40:00Z,28.1910,-88.4960,48.2,2.0,281.0,99.0,'11111222,11111222,11144222' 
ADCP,ioos:station:wmo:42887:1,2012-08-03T00:00:00Z,28.1910,-88.4960,48.2,2.9,299.0,99.0,'11111222,11111222,11144222' 
ADCP,ioos:station:wmo:42887:1,2012-08-03T00:20:00Z,28.1910,-88.4960,48.2,0.3,328.0,99.0,'11111222,11111222,11144222' 
ADCP,ioos:station:wmo:42887:1,2012-08-03T00:40:00Z,28.1910,-88.4960,48.2,0.0,132.0,99.0,'11111222,11111222,11144222' 
ADCP,ioos:station:wmo:42887:1,2012-08-03T01:00:00Z,28.1910,-88.4960,48.2,0.0,93.0,99.0,'11111222,11111222,11144222' 
ADCP,ioos:station:wmo:42887:1,2012-08-03T01:20:00Z,28.1910,-88.4960,48.2,0.6,284.0,99.0,'11111222,11111222,11144222' 
ADCP,ioos:station:wmo:42887:1,2012-08-03T01:40:00Z,28.1910,-88.4960,48.2,0.2,303.0,99.0,'11111222,11111222,11144222' 
ADCP,ioos:station:wmo:42887:1,2012-08-03T02:00:00Z,28.1910,-88.4960,48.2,0.0,174.0,99.0,'11111222,11111222,11144222' 
ADCP,ioos:station:wmo:42887:1,2012-08-03T02:20:00Z,28.1910,-88.4960,48.2,0.0,288.0,99.0,'11111222,11111222,11144222' 
ADCP,ioos:station:wmo:42887:1,2012-08-03T02:40:00Z,28.1910,-88.4960,48.2,0.2,183.0,99.0,'11111222,11111222,11144222' 
ADCP,ioos:station:wmo:42887:1,2012-08-03T03:00:00Z,28.1910,-88.4960,48.2,0.7,207.0,99.0,'11111222,11111222,11144222' 
ADCP,ioos:station:wmo:42887:1,2012-08-03T03:20:00Z,28.1910,-88.4960,48.2,0.2,181.0,99.0,'11111222,11111222,11144222' 
ADCP,ioos:station:wmo:42887:1,2012-08-03T03:40:00Z,28.1910,-88.4960,48.2,1.3,173.0,99.0,'11111222,11111222,11144222' 
ADCP,ioos:station:wmo:42887:1,2012-08-03T04:00:00Z,28.1910,-88.4960,48.2,1.7,176.0,99.0,'11111222,11111222,11144222' 
ADCP,ioos:station:wmo:42887:1,2012-08-03T04:20:00Z,28.1910,-88.4960,48.2,1.3,188.0,99.0,'11111222,11111222,11144222' 
ADCP,ioos:station:wmo:42887:1,2012-08-03T04:40:00Z,28.1910,-88.4960,48.2,2.0,169.0,99.0,'11111222,11111222,11144222' 
ADCP,ioos:station:wmo:42887:1,2012-08-03T05:00:00Z,28.1910,-88.4960,48.2,2.4,188.0,99.0,'11111222,11111222,11144222' 
ADCP,ioos:station:wmo:42887:1,2012-08-03T05:20:00Z,28.1910,-88.4960,48.2,2.6,173.0,99.0,'11111222,11111222,11144222' 
ADCP,ioos:station:wmo:42887:1,2012-08-03T05:40:00Z,28.1910,-88.4960,48.2,2.5,175.0,99.0,'11111222,11111222,11144222' 
ADCP,ioos:station:wmo:42887:1,2012-08-03T06:00:00Z,28.1910,-88.4960,48.2,2.6,192.0,99.0,'11111222,11111222,11144222' 
ADCP,ioos:station:wmo:42887:1,2012-08-03T06:20:00Z,28.1910,-88.4960,48.2,2.5,189.0,99.0,'11111222,11111222,11144222' 
ADCP,ioos:station:wmo:42887:1,2012-08-03T06:40:00Z,28.1910,-88.4960,48.2,2.8,199.0,99.0,'11111222,11111222,11144222' 
ADCP,ioos:station:wmo:42887:1,2012-08-03T07:00:00Z,28.1910,-88.4960,48.2,2.7,199.0,99.0,'11111222,11111222,11144222' 
ADCP,ioos:station:wmo:42887:1,2012-08-03T07:20:00Z,28.1910,-88.4960,48.2,2.5,202.0,99.0,'11111222,11111222,11144222' 
ADCP,ioos:station:wmo:42887:1,2012-08-03T07:40:00Z,28.1910,-88.4960,48.2,2.9,207.0,99.0,'11111222,11111222,11144222' 
ADCP,ioos:station:wmo:42887:1,2012-08-03T08:00:00Z,28.1910,-88.4960,48.2,3.3,210.0,99.0,'11111222,11111222,11144222' 
ADCP,ioos:station:wmo:42887:1,2012-08-03T08:20:00Z,28.1910,-88.4960,48.2,3.5,209.0,99.0,'11111222,11111222,11144222' 
ADCP,ioos:station:wmo:42887:1,2012-08-03T08:40:00Z,28.1910,-88.4960,48.2,3.1,206.0,99.0,'11111222,11111222,11144222' 
ADCP,ioos:station:wmo:42887:1,2012-08-03T09:00:00Z,28.1910,-88.4960,48.2,2.9,218.0,99.0,'11111222,11111222,11144222' 
ADCP,ioos:station:wmo:42887:1,2012-08-03T09:20:00Z,28.1910,-88.4960,48.2,3.3,209.0,99.0,'11111222,11111222,11144222' 
ADCP,ioos:station:wmo:42887:1,2012-08-03T09:40:00Z,28.1910,-88.4960,48.2,3.0,207.0,99.0,'11111222,11111222,11144222' 
ADCP,ioos:station:wmo:42887:1,2012-08-03T10:00:00Z,28.1910,-88.4960,48.2,3.0,207.0,99.0,'11111222,11111222,11144222' 
ADCP,ioos:station:wmo:42887:1,2012-08-03T10:20:00Z,28.1910,-88.4960,48.2,2.7,208.0,99.0,'11111222,11111222,11144222' 
ADCP,ioos:station:wmo:42887:1,2012-08-03T10:40:00Z,28.1910,-88.4960,48.2,1.8,216.0,99.0,'11111222,11111222,11144222' 
ADCP,ioos:station:wmo:42887:1,2012-08-03T11:00:00Z,28.1910,-88.4960,48.2,2.5,212.0,99.0,'11111222,11111222,11144222' 
ADCP,ioos:station:wmo:42887:1,2012-08-03T11:20:00Z,28.1910,-88.4960,48.2,3.8,217.0,99.0,'11111222,11111222,11144222' 
ADCP,ioos:station:wmo:42887:1,2012-08-03T11:40:00Z,28.1910,-88.4960,48.2,3.0,214.0,99.0,'11111222,11111222,11144222' 
ADCP,ioos:station:wmo:42887:1,2012-08-03T12:00:00Z,28.1910,-88.4960,48.2,3.4,224.0,99.0,'11111222,11111222,11144222' 
ADCP,ioos:station:wmo:42887:1,2012-08-03T12:20:00Z,28.1910,-88.4960,48.2,1.0,227.0,99.0,'11111222,11111222,11144222' 
ADCP,ioos:station:wmo:42887:1,2012-08-03T12:40:00Z,28.1910,-88.4960,48.2,2.4,217.0,99.0,'11111222,11111222,11144222' 
ADCP,ioos:station:wmo:42887:1,2012-08-03T13:00:00Z,28.1910,-88.4960,48.2,2.1,231.0,99.0,'11111222,11111222,11144222' 
ADCP,ioos:station:wmo:42887:1,2012-08-03T13:20:00Z,28.1910,-88.4960,48.2,2.3,247.0,99.0,'11111222,11111222,11144222' 
ADCP,ioos:station:wmo:42887:1,2012-08-03T13:40:00Z,28.1910,-88.4960,48.2,1.5,243.0,99.0,'11111222,11111222,11144222' 
ADCP,ioos:station:wmo:42887:1,2012-08-03T14:00:00Z,28.1910,-88.4960,48.2,1.5,244.0,99.0,'11111222,11111222,11144222' 
ADCP,ioos:station:wmo:42887:1,2012-08-03T14:20:00Z,28.1910,-88.4960,48.2,2.1,246.0,99.0,'11111222,11111222,11144222' 
ADCP,ioos:station:wmo:42887:1,2012-08-03T14:40:00Z,28.1910,-88.4960,48.2,1.7,246.0,99.0,'11111222,11111222,11144222' 
ADCP,ioos:station:wmo:42887:1,2012-08-03T15:00:00Z,28.1910,-88.4960,48.2,0.7,222.0,99.0,'11111222,11111222,11144222' 
ADCP,ioos:station:wmo:42887:1,2012-08-03T15:20:00Z,28.1910,-88.4960,48.2,0.0,329.0,99.0,'11111222,11111222,11144222' 
ADCP,ioos:station:wmo:42887:1,2012-08-03T15:40:00Z,28.1910,-88.4960,48.2,0.9,265.0,99.0,'11111222,11111222,11144222' 
ADCP,ioos:station:wmo:42887:1,2012-08-03T16:00:00Z,28.1910,-88.4960,48.2,1.3,275.0,99.0,'11111222,11111222,11144222' 
ADCP,ioos:station:wmo:42887:1,2012-08-03T16:20:00Z,28.1910,-88.4960,48.2,1.6,281.0,99.0,'11111222,11111222,11144222' 
ADCP,ioos:station:wmo:42887:1,2012-08-03T16:40:00Z,28.1910,-88.4960,48.2,1.0,277.0,99.0,'11111222,11111222,11144222' 
ADCP,ioos:station:wmo:42887:1,2012-08-03T17:00:00Z,28.1910,-88.4960,48.2,0.6,286.0,99.0,'11111222,11111222,11144222' 
ADCP,ioos:station:wmo:42887:1,2012-08-03T17:20:00Z,28.1910,-88.4960,48.2,0.7,266.0,99.0,'11111222,11111222,11144222' 
ADCP,ioos:station:wmo:42887:1,2012-08-03T17:40:00Z,28.1910,-88.4960,48.2,1.9,291.0,99.0,'11111222,11111222,11144222' 
ADCP,ioos:station:wmo:42887:1,2012-08-03T18:00:00Z,28.1910,-88.4960,48.2,0.5,264.0,99.0,'11111222,11111222,11144222' 
ADCP,ioos:station:wmo:42887:1,2012-08-03T18:20:00Z,28.1910,-88.4960,48.2,0.1,349.0,99.0,'11111222,11111222,11144222' 
ADCP,ioos:station:wmo:42887:1,2012-08-03T18:40:00Z,28.1910,-88.4960,48.2,0.0,201.0,99.0,'11111222,11111222,11144222' 
ADCP,ioos:station:wmo:42887:1,2012-08-03T19:00:00Z,28.1910,-88.4960,48.2,0.0,201.0,99.0,'11111222,11111222,11144222' 